Location: Ferchesar
(52.6477°N, 12.4298°E)
Time: 02:40:56
(UTC+01:00)

Vanguard 1 - Pass Details

Date: 16 December 2021
Orbit: 652 x 3830 km, 34.2° (Epoch: 21 January)

Event Time Altitude Azimuth Distance (km) Brightness Sun altitude
Exits shadow 03:47:30 22° 202° (SSW) 5,651 13.6 -39.1°
Drops below altitude 10° 03:56:22 10° 177° (S) 6,164 14.0 -37.8°
Sets 04:01:53 0° 164° (SSE) 6,756 14.4 -37.0°
